Content
SEND FEEDBACK

Daily
Averages
Monthly
Summary
United States of America

CASTLE HAYNE, NORTH CAROLINA


Home > North America > United States > North Carolina
Elevation: 35 feet     Latitude: 34 19N     Longitude: 077 55W

WEATHER
 
SELECT A DAY
Number of Records: 211,656;   Date Range: 1/1/95 - 9/29/14
 
SHARE

PRINT THIS DATA

[ ← Previous Day ]
WEATHER ALMANAC - DECEMBER 8, 2013
[ Next Day → ]
[ °C ]   °F
Weather ElementAverageHighLow
Temperature42.9 °F44.1 °F (1:53 pm)42.1 °F (6:53 am)
Dewpoint38.9 °F39.9 °F (1:53 pm)37 °F (7:53 am)
Humidity85.8 %92 % (6:53 pm)81 % (7:19 am)
Barometer30.34 in30.39 in (12:53 am)30.27 in (11:53 pm)
Wind Speed9.1 mph13.8 mph (5:53 am)
Weather ElementAverage
Visibility8.6 mi
Wind DirectionSSE (149.3 °)

Weather ElementTotal
Precipitation0.03 in
Heating Degree Days21.9 (Base 65)
Averaged from 29 records on December 8, 2013
WEATHER CONDITIONS BREAKOUT
WIND DIRECTION BREAKOUT
WEATHER BY HOUR - DECEMBER 8, 2013
[ °C ]   °F
Local TimeTemperatureDewpointHumidityBarometerVisibilityWind DirectionWind SpeedGust SpeedPrecipitationEventsConditions
12:53 AM43.0 °F39.0 °F86 %30.39 in10.0 miNNE (30°)9.2 mph0.00 inOvercast
1:53 AM43.0 °F37.9 °F82 %30.38 in10.0 miNNE (30°)10.4 mphOvercast
2:05 AM42.8 °F39.2 °F87 %30.38 in10.0 miNNE (20°)9.2 mph0.00 inRainLight Rain
2:53 AM43.0 °F39.0 °F86 %30.36 in7.0 miNNE (30°)11.5 mph0.01 inRainLight Rain
3:21 AM42.8 °F39.2 °F87 %30.37 in9.0 miNNE (20°)10.4 mph0.00 inOvercast
3:53 AM43.0 °F39.0 °F86 %30.36 in9.0 miNE (40°)11.5 mph0.00 inRainLight Rain
4:53 AM43.0 °F39.0 °F86 %30.36 in9.0 miNNE (30°)10.4 mph0.01 inOvercast
5:53 AM43.0 °F39.0 °F86 %30.35 in10.0 miNE (40°)13.8 mph0.00 inRainLight Rain
6:53 AM42.1 °F37.9 °F85 %30.37 in10.0 miNE (50°)11.5 mphOvercast
7:19 AM42.8 °F37.4 °F81 %30.39 in10.0 miNNE (20°)8.1 mph0.00 inRainLight Rain
7:53 AM42.1 °F37.0 °F82 %30.39 in10.0 miNNE (30°)12.7 mph0.01 inOvercast
8:16 AM42.8 °F37.4 °F81 %30.39 in10.0 miNNE (20°)8.1 mphOvercast
8:53 AM42.1 °F37.9 °F85 %30.39 in10.0 miNorth (10°)9.2 mphOvercast
9:53 AM42.1 °F37.9 °F85 %30.38 in10.0 miNNE (30°)11.5 mphOvercast
10:53 AM42.1 °F37.9 °F85 %30.38 in10.0 miNorth (10°)12.7 mphOvercast
11:53 AM43.0 °F39.0 °F86 %30.36 in10.0 miNorth (350°)8.1 mphOvercast
12:53 PM43.0 °F39.0 °F86 %30.31 in9.0 miNNE (30°)12.7 mphOvercast
1:53 PM44.1 °F39.9 °F85 %30.29 in10.0 miNNE (30°)11.5 mphOvercast
2:53 PM44.1 °F39.0 °F82 %30.30 in10.0 miNorth (350°)10.4 mphOvercast
3:53 PM44.1 °F39.0 °F82 %30.30 in10.0 miNNW (340°)6.9 mphOvercast
4:53 PM43.0 °F39.9 °F89 %30.30 in6.0 miNorth (360°)8.1 mph0.00 inOvercast
5:15 PM42.8 °F39.2 °F87 %30.31 in8.0 miNorth (360°)8.1 mphOvercast
5:53 PM43.0 °F39.0 °F86 %30.31 in6.0 miNorth (10°)10.4 mphOvercast
6:53 PM42.1 °F39.9 °F92 %30.31 in5.0 miNorth (360°)5.8 mphOvercast
7:53 PM43.0 °F39.9 °F89 %30.32 in4.0 miNorth (360°)3.5 mphOvercast
8:53 PM43.0 °F39.9 °F89 %30.31 in5.0 miNorth (360°)3.5 mph0.00 inOvercast
9:53 PM43.0 °F39.9 °F89 %30.31 in7.0 miNNW (330°)5.8 mph0.00 inOvercast
10:53 PM43.0 °F39.9 °F89 %30.30 in6.0 miNNW (340°)5.8 mphOvercast
11:53 PM43.0 °F39.0 °F86 %30.27 in8.0 miNNW (340°)3.5 mph0.00 inOvercast
Hourly data recorded from KILM, located miles away from Castle Hayne, North Carolina







STORIES FROM OUR PARTNERS